CW3777 Weather Reports


Display with metric or nautical units.
time (UTC)temp
F
wind
direction
speed
MPH
gust
MPH
rain 1hr
in
rain 24hr
in
rain mn
in
humidity
%
barometer
mb
20180815110701 73 321 0.0 0.0 0.00 0.00 0.00 96 1016.2
20180815110201 73 321 0.0 1.0 0.00 0.00 0.00 96 1016.2
20180815103701 72 322 0.0 0.0 0.00 0.00 0.00 96 1015.9
20180815103201 72 322 0.0 0.0 0.00 0.00 0.00 96 1015.8
20180815100701 72 322 0.0 0.0 0.00 0.00 0.00 97 1015.6
20180815100201 72 322 0.0 1.0 0.00 0.00 0.00 96 1015.7
20180815093701 72 322 0.0 0.0 0.00 0.00 0.00 96 1015.6
20180815093201 72 322 0.0 0.0 0.00 0.00 0.00 96 1015.7
20180815090701 72 322 0.0 0.0 0.00 0.00 0.00 96 1015.6
20180815090201 72 322 0.0 1.0 0.00 0.00 0.00 96 1015.5
20180815083701 72 322 0.0 0.0 0.00 0.00 0.00 95 1015.6
20180815083201 72 322 0.0 0.0 0.00 0.00 0.00 95 1015.6
20180815080701 72 322 0.0 0.0 0.00 0.00 0.00 95 1015.7
20180815080201 72 322 0.0 0.0 0.00 0.00 0.00 95 1015.7
20180815073701 73 322 0.0 0.0 0.00 0.00 0.00 93 1015.7
20180815073201 73 322 0.0 0.0 0.00 0.00 0.00 93 1015.8
20180815070701 74 322 0.0 0.0 0.00 0.00 0.00 91 1015.7
20180815070201 74 322 0.0 2.0 0.00 0.00 0.00 90 1015.8
20180815063701 74 322 0.0 0.0 0.00 0.00 0.00 89 1016.0
20180815063201 75 322 0.0 0.0 0.00 0.00 0.00 88 1016.0
20180815060701 75 0 0.0 0.0 0.00 0.00 0.00 89 1016.3
20180815060200 75 0 0.0 0.0 0.00 0.00 0.00 89 1016.3
20180815053702 74 232 0.0 0.0 0.00 0.00 0.00 89 1016.0
20180815053201 74 232 0.0 0.0 0.00 0.00 0.00 89 1016.0
20180815050701 75 230 0.0 0.0 0.00 0.00 0.00 86 1016.1
20180815050202 75 231 0.0 1.0 0.00 0.00 0.00 87 1016.2
20180815043701 75 231 0.0 0.0 0.00 0.00 0.00 86 1016.2
20180815043201 75 231 0.0 0.0 0.00 0.00 0.00 84 1016.2
20180815040701 75 234 0.0 0.0 0.00 0.00 0.00 84 1016.1
20180815040201 75 234 0.0 0.0 0.00 0.00 0.00 84 1016.2
20180815033701 74 237 0.0 0.0 0.00 0.00 0.00 85 1015.9
20180815033201 74 237 0.0 0.0 0.00 0.00 0.00 85 1015.9
20180815030701 76 237 0.0 0.0 0.00 0.00 0.00 82 1015.7
20180815030202 76 237 0.0 0.0 0.00 0.00 0.00 82 1015.8
20180815023701 77 226 0.0 1.0 0.00 0.00 0.00 81 1015.7
20180815023201 77 226 0.0 0.0 0.00 0.00 0.00 81 1015.7
20180815020701 77 235 0.0 0.0 0.00 0.00 0.00 85 1015.5
20180815020201 77 196 0.0 0.0 0.00 0.00 0.00 85 1015.4
20180815013701 76 225 0.0 0.0 0.00 0.00 0.00 86 1015.4
20180815013202 76 225 0.0 0.0 0.00 0.00 0.00 86 1015.4
20180815010701 76 225 0.0 1.0 0.00 0.00 0.00 85 1015.3
20180815010202 76 225 0.0 1.0 0.00 0.00 0.00 84 1015.2
20180815003702 77 225 0.0 0.0 0.00 0.00 0.00 83 1015.0
20180815003201 77 225 0.0 0.0 0.00 0.00 0.00 82 1015.0
20180815000701 78 225 0.0 0.0 0.00 0.00 0.00 79 1014.7
20180815000202 79 225 0.0 3.0 0.00 0.00 0.00 78 1014.6
20180814233702 80 225 0.0 0.0 0.00 0.00 0.00 75 1014.4
20180814233201 80 225 0.0 1.0 0.00 0.00 0.00 74 1014.3
20180814230701 83 225 0.0 1.0 0.00 0.00 0.00 67 1014.1
20180814230201 83 225 0.0 1.0 0.00 0.00 0.00 66 1014.0
20180814223701 84 2 0.0 0.0 0.00 0.00 0.00 63 1013.9
20180814223201 84 235 0.0 0.0 0.00 0.00 0.00 62 1013.8
20180814220701 85 226 0.0 0.0 0.00 0.00 0.00 60 1013.8
20180814220201 85 219 0.0 0.0 0.00 0.00 0.00 60 1013.8
20180814213701 86 244 0.0 0.0 0.00 0.00 0.00 59 1014.0
20180814213201 87 229 0.0 0.0 0.00 0.00 0.00 59 1013.8
20180814210701 87 233 0.0 0.0 0.00 0.00 0.00 56 1014.1
20180814210201 87 232 0.0 0.0 0.00 0.00 0.00 56 1014.1
20180814203701 86 233 0.0 0.0 0.00 0.00 0.00 58 1014.1
20180814203201 86 210 0.0 0.0 0.00 0.00 0.00 58 1014.1
20180814200702 87 240 0.0 0.0 0.00 0.00 0.00 59 1014.3
20180814200201 86 226 0.0 0.0 0.00 0.00 0.00 58 1014.3
20180814193701 87 230 0.0 0.0 0.00 0.00 0.00 58 1014.2
20180814193201 86 311 0.0 0.0 0.00 0.00 0.00 56 1014.1
20180814190702 86 297 0.0 0.0 0.00 0.00 0.00 58 1014.2
20180814190201 86 219 0.0 0.0 0.00 0.00 0.00 58 1014.3
20180814183701 85 271 0.0 0.0 0.00 0.00 0.00 58 1014.7
20180814183202 85 267 0.0 0.0 0.00 0.00 0.00 58 1014.7
20180814180701 84 237 0.0 0.0 0.00 0.00 0.00 59 1015.1
20180814180202 84 304 0.0 0.0 0.00 0.00 0.00 60 1015.1
20180814173701 86 105 0.0 1.0 0.00 0.00 0.00 62 1015.5
20180814173201 85 179 0.0 1.0 0.00 0.00 0.00 59 1015.6
20180814170701 84 189 0.0 0.0 0.00 0.00 0.00 62 1015.5
20180814170202 84 228 0.0 1.0 0.00 0.00 0.00 61 1015.6
20180814163702 83 270 0.0 0.0 0.00 0.00 0.00 62 1015.5
20180814163201 82 227 0.0 0.0 0.00 0.00 0.00 63 1015.5
20180814160701 82 222 0.0 0.0 0.00 0.00 0.00 63 1015.6
20180814160201 81 226 0.0 0.0 0.00 0.00 0.00 63 1015.7
20180814153701 81 302 0.0 0.0 0.00 0.00 0.00 63 1015.8
20180814153201 80 249 0.0 0.0 0.00 0.00 0.00 62 1015.7
20180814150701 80 260 0.0 0.0 0.00 0.00 0.00 63 1015.8
20180814150202 79 307 0.0 0.0 0.00 0.00 0.00 64 1015.8
20180814143701 78 299 0.0 1.0 0.00 0.00 0.00 70 1015.7
20180814143202 78 215 0.0 0.0 0.00 0.00 0.00 69 1015.6
20180814140702 76 243 0.0 1.0 0.00 0.00 0.00 74 1015.8
20180814140201 76 225 0.0 0.0 0.00 0.00 0.00 76 1015.9
20180814133702 74 224 0.0 1.0 0.00 0.00 0.00 79 1015.9
20180814133202 74 224 0.0 0.0 0.00 0.00 0.00 80 1015.9
20180814130701 73 225 0.0 0.0 0.00 0.00 0.00 84 1016.0
20180814130202 73 234 0.0 0.0 0.00 0.00 0.00 84 1016.0
20180814123701 72 240 0.0 0.0 0.00 0.00 0.00 87 1015.8
20180814123202 71 240 0.0 0.0 0.00 0.00 0.00 88 1015.8
20180814120702 70 215 0.0 0.0 0.00 0.00 0.00 92 1015.7
20180814120201 70 220 0.0 1.0 0.00 0.00 0.00 92 1015.7
20180814113702 68 321 0.0 2.0 0.00 0.00 0.00 95 1015.5
20180814113201 67 321 0.0 0.0 0.00 0.00 0.00 96 1015.7